Theta_e
297 297 296 295 296 296 295 294 294 294 293 293 293 293 293 292 292 292 292 290 290 290
293 294 293 294 293 293 292 292 292 292 291 291 291 292 291 290 289 290 289 289 289 288
291 291 291 291 290 290 290 290 290 290 290 290 290 290 290 289 288 288 288 288 287 286
290 290 289 289 289 289 289 288 288 288 288 288 288 288 288 287 287 286 286 286 285 285
288 288 288 287 287 287 286 287 286 286 287 287 287 287 286 285 285 284 284 284 284 283
287 287 286 286 286 286 286 285 285 285 285 286 286 286 285 285 284 284 283 283 282 282
287 286 285 285 285 284 284 284 284 283 283 284 285 285 285 284 283 283 283 283 282 281
285 285 285 284 284 283 283 283 283 282 282 283 284 284 283 283 282 281 281 282 281 281
284 284 283 283 282 282 282 282 281 281 281 280 282 283 283 283 281 281 280 280 280 280
283 282 281 281 280 280 280 280 279 279 280 279 280 281 282 282 281 280 280 279 279 278
281 281 280 279 279 279 279 279 278 278 279 278 278 279 281 281 280 280 280 279 279 278
280 279 279 278 278 278 278 278 278 278 278 277 278 278 279 280 279 279 278 279 278 278
279 279 278 278 277 277 277 277 277 277 277 277 276 277 278 279 279 277 277 278 278 278
277 277 278 277 276 276 276 276 275 275 276 276 276 276 277 278 277 277 276 276 276 276
Wind_Speed
11 8 7 8 7 6 5 6 6 6 6 7 8 7 7 6 6 7 6 9 7 6
7 10 9 10 7 5 5 5 6 5 6 7 8 7 7 6 7 6 6 6 6 5
10 9 7 6 6 6 5 5 5 6 6 7 7 7 6 5 6 6 5 4 7 6
6 6 6 5 6 6 5 5 5 6 6 6 6 6 6 5 6 7 6 7 7 8
6 5 5 5 6 5 6 5 4 4 4 4 5 5 6 7 7 7 8 8 7 8
6 5 5 5 5 4 4 4 4 4 4 4 5 6 6 6 6 6 6 7 8 8
5 5 5 5 4 3 3 4 4 4 4 4 5 6 6 6 5 5 5 5 5 6
5 5 5 4 4 4 4 4 3 3 4 3 4 5 6 7 6 6 5 4 5 5
6 5 4 4 4 4 4 3 3 3 3 3 3 6 7 7 5 4 4 5 5 6
4 5 4 4 4 4 3 3 3 2 1 2 2 6 7 7 5 5 4 6 5 6
5 5 5 4 4 4 3 2 2 2 1 1 2 3 6 8 5 5 5 5 6 7
5 5 5 4 3 2 2 2 2 1 1 1 0 3 6 7 5 5 6 6 6 6
5 5 5 4 3 1 1 2 2 2 1 0 2 2 5 6 4 5 5 6 7 7
5 3 3 3 3 4 3 2 2 2 2 2 2 3 5 6 5 4 5 5 5 5
Wind_Direction
89 93 93 75 67 44 52 52 34 38 41 43 36 36 40 38 31 32 24 22 12 353
98 84 76 78 73 67 46 55 46 40 49 45 43 35 48 40 31 34 25 19 11 5
55 70 70 81 86 80 64 58 55 53 54 51 42 39 44 40 30 30 26 25 15 14
79 80 80 84 75 77 74 63 61 57 55 51 46 37 40 41 28 30 23 20 13 12
108 91 82 78 83 74 75 66 67 67 71 64 54 47 39 36 25 22 20 14 11 10
111 113 115 102 89 88 98 91 76 73 72 63 46 40 34 32 25 24 18 12 6 2
123 125 102 96 97 104 107 111 104 87 76 59 47 38 23 20 21 13 14 6 356 360
138 126 121 134 146 138 127 113 94 86 69 53 47 35 17 7 7 5 349 339 354 348
137 131 149 161 157 148 134 112 99 85 69 51 53 18 17 13 346 336 325 333 335 339
141 156 170 171 167 155 136 124 116 103 97 103 75 11 2 1 319 317 318 323 324 325
172 177 176 180 171 153 148 148 149 148 134 141 101 355 349 339 311 307 318 312 327 326
182 176 180 185 176 167 169 166 194 186 187 207 178 11 335 330 317 302 304 318 322 333
176 184 184 178 172 155 220 204 201 216 198 145 305 307 321 318 306 298 316 322 317 319
176 178 176 163 167 170 206 218 206 231 221 229 247 295 287 300 309 321 319 308 313 328